User: anonymous   Login
Location: Unspecified
(0.0000°N, 0.0000°E)
Time: 05:02:48
(UTC+01:00)
Language:

Cosmos 1733 Rocket - Orbit

View from above orbital plane
View from above orbital plane
View from above satellite
View from above satellite

Ground track
Ground track

The orbit data is extracted from the following two-line orbital elements,

1 16612U 86018B   14302.65600753  .00000609  00000-0  70583-4 0   578
2 16612 082.5146 118.3593 0019273 087.3308 324.3514 14.83673908448855
Epoch (UTC): 29 October 2014 15:44:39
Eccentricity: 0.0019273
inclination: 82.5146°
perigee height: 604 km
apogee height: 631 km
right ascension of ascending node: 118.3593°
argument of perigee: 87.3308°
revolutions per day: 14.83673908
mean anomaly at epoch: 324.3514°
orbit number at epoch: 44885

The dashed part of the orbit path shows where the satellite is in the earth's shadow,  

DLR